GFSMA_700_rhum_081.txt.gz
RH
47 47 47 47 47 45 44 44 48 50 50 50 50 50 51 52 51 52 55 56 54 45 43 48 50 53 48 49 51 49 46 45 44 43 44 47 46 45 42 39 38 37 37
48 48 48 49 49 49 47 44 44 46 51 51 51 51 52 52 52 52 54 57 56 51 43 51 52 53 52 51 53 55 53 50 48 47 47 46 46 44 42 41 40 39 38
47 47 48 49 50 50 50 45 40 39 46 51 52 52 53 53 54 54 54 57 58 54 47 49 55 56 59 57 56 57 61 61 59 56 54 52 49 47 45 44 43 42 40
54 54 54 53 52 52 50 44 39 39 42 49 51 52 53 54 55 56 56 57 60 59 51 49 55 57 60 61 58 60 59 58 60 62 64 59 54 51 50 48 48 46 45
48 48 46 45 46 46 45 43 41 42 46 53 54 53 53 54 56 57 58 60 59 62 59 55 56 58 60 60 61 61 64 61 62 61 62 65 59 56 53 52 51 50 48
33 32 30 33 40 45 52 53 51 48 45 50 59 58 56 56 56 58 60 62 63 61 62 59 61 62 62 65 63 65 66 68 71 70 64 66 68 65 61 58 56 53 51
38 38 39 38 42 48 52 50 47 46 52 57 63 62 63 60 60 60 63 64 65 66 67 63 64 67 70 69 70 74 75 76 82 88 86 75 74 71 72 68 66 65 62
42 44 44 44 44 45 48 47 46 56 64 63 62 66 66 66 64 69 70 69 68 68 69 71 74 73 77 79 79 80 82 87 89 81 83 89 85 76 81 80 77 75 72
53 53 51 48 48 48 51 52 55 58 65 70 74 76 70 66 66 65 68 73 75 75 75 78 80 83 87 92 95 92 94 95 94 91 87 92 90 88 84 79 81 79 78
60 58 56 52 50 49 52 52 62 63 65 65 68 66 69 72 75 76 74 77 79 79 84 90 95 97 99 100 100 100 100 100 100 100 97 87 90 98 100 100 91 91 87
67 66 59 53 50 51 53 59 66 62 64 67 68 71 73 75 78 81 82 80 82 86 91 100 100 98 96 98 94 99 96 98 100 100 98 100 99 97 92 98 97 96 100
28 32 42 46 43 47 52 59 65 65 63 66 68 72 77 76 80 84 89 90 88 85 88 97 96 98 92 95 100 100 99 98 100 100 100 100 99 99 100 100 100 100 100
12 17 22 26 29 33 38 45 50 55 60 66 71 69 81 83 88 89 94 97 98 99 98 100 97 100 96 99 100 99 99 100 99 98 99 98 99 99 95 99 100 100 99
20 22 27 31 33 35 39 43 46 47 48 52 53 63 71 74 92 89 88 93 97 97 86 84 98 98 97 100 100 99 100 98 98 97 98 97 100 100 100 100 100 100 98
28 30 31 31 31 37 41 44 45 46 49 50 54 57 62 68 97 81 87 92 93 93 90 89 99 99 100 100 98 98 91 91 91 100 100 100 98 99 100 100 100 100 96
24 25 24 24 24 24 25 26 27 30 34 38 42 47 52 60 72 95 86 91 93 98 99 96 99 97 98 98 98 97 99 98 100 100 98 100 98 98 99 100 92 77 58
21 22 24 24 25 26 28 29 32 33 35 38 40 42 49 55 56 56 63 73 82 99 94 99 100 99 99 99 97 94 98 98 98 98 98 97 94 96 89 81 61 35 17
39 41 42 44 43 40 41 44 47 49 51 52 51 49 50 52 55 54 52 52 70 70 98 98 98 100 91 89 90 93 97 99 100 98 96 90 55 23 12 10 9 9 8
39 42 42 42 40 38 38 38 42 46 54 60 70 70 68 66 70 71 67 71 95 96 100 98 98 99 95 94 97 97 96 93 70 30 13 10 9 8 8 8 6 5 4
27 23 28 32 32 33 35 38 41 46 51 62 64 61 70 73 78 95 98 80 100 94 98 100 100 97 97 98 96 67 21 12 10 9 8 8 6 5 4 4 5 5 6
24 30 30 30 28 29 33 38 38 35 45 54 62 61 69 78 98 100 99 99 94 98 98 97 97 94 80 29 12 10 10 8 7 5 4 4 5 6 10 18 24 28 28
30 29 29 34 35 39 39 40 49 52 58 68 60 69 93 100 98 99 98 95 96 96 99 89 27 14 12 11 9 6 4 3 3 2 6 18 21 36 37 32 26 24 23
34 40 43 46 50 49 52 57 60 58 59 66 74 84 96 97 93 89 89 80 52 25 15 12 11 9 7 5 4 2 2 3 10 18 25 36 30 28 26 27 27 28 29
45 46 49 54 52 58 60 64 62 66 69 71 76 77 67 46 29 15 14 13 11 9 6 5 4 3 2 2 2 3 12 22 26 26 24 26 24 28 31 33 35 36 37
56 53 55 56 57 62 63 64 64 65 61 33 19 16 15 13 12 9 6 4 4 3 3 2 2 2 2 2 10 18 23 27 31 33 30 29 31 31 31 36 41 46 44
63 60 61 60 60 63 63 61 41 20 17 16 15 14 13 9 6 4 4 3 2 2 2 2 2 2 6 17 20 23 25 28 29 34 32 31 32 31 26 35 43 46 43

GFSMA_700_rhum_084.txt.gz
RH
47 48 47 47 48 48 48 46 46 47 49 51 52 52 52 52 51 53 55 55 57 57 53 42 47 50 49 48 46 46 48 50 49 47 46 45 46 46 44 43 41 40 38
48 49 49 49 49 50 50 50 49 45 43 47 51 52 53 53 53 53 54 56 57 58 58 52 46 49 54 54 53 51 51 52 54 56 55 54 52 50 47 45 44 42 42
46 47 47 48 48 49 50 51 51 47 43 41 43 50 52 53 54 55 55 56 58 59 60 58 52 50 52 57 60 59 58 57 56 55 55 56 58 58 52 50 47 46 44
52 52 52 54 55 54 53 53 52 46 44 44 48 52 53 53 53 55 56 57 59 61 61 62 60 56 56 59 62 64 64 64 63 57 58 60 61 60 56 54 51 49 49
40 46 51 48 43 40 40 43 46 48 47 47 45 45 52 57 56 56 56 58 60 61 64 65 64 64 62 62 64 68 72 75 71 68 68 71 72 66 65 61 58 56 55
38 35 33 33 32 30 33 38 44 48 49 50 49 51 53 57 61 61 60 60 61 64 66 68 69 72 72 70 71 72 75 84 85 78 80 86 90 74 71 69 68 69 69
40 38 39 41 42 41 39 40 43 45 46 53 59 60 62 61 61 66 71 71 70 70 71 72 72 75 79 82 83 85 86 89 92 87 88 92 95 88 82 79 76 78 79
44 44 46 47 47 48 47 46 47 47 52 59 67 75 70 66 66 70 73 73 75 76 77 80 81 81 83 88 95 98 98 98 98 95 97 99 99 94 96 99 93 87 89
54 55 53 50 53 54 53 53 49 53 54 62 65 72 70 66 68 72 76 80 84 86 88 88 87 88 90 94 100 100 99 98 99 100 100 100 98 100 100 97 96 92 99
52 54 56 56 56 60 59 58 55 59 60 60 68 72 74 78 79 75 72 73 78 83 87 88 91 97 100 100 100 97 97 94 93 100 100 100 100 99 100 100 99 98 94
49 50 53 56 60 59 58 57 54 54 56 57 63 70 73 72 71 70 69 74 78 82 85 87 89 90 91 99 100 100 99 100 96 99 99 100 100 100 100 100 100 100 100
75 73 67 59 54 48 46 44 38 36 42 49 62 64 64 65 73 78 92 98 98 100 97 96 91 93 96 96 98 99 98 96 99 100 99 99 99 100 98 98 100 99 100
20 22 25 29 31 29 28 30 30 32 36 37 45 55 51 54 65 84 96 98 99 78 93 99 96 97 99 100 98 98 100 99 95 99 86 91 75 90 92 92 91 92 99
14 18 18 20 23 30 32 36 39 41 39 42 40 44 45 54 61 64 69 84 92 91 95 99 100 97 98 96 100 97 99 94 98 98 96 100 99 100 100 99 97 99 100
20 21 25 29 31 35 35 35 36 39 42 45 47 50 50 52 54 54 62 72 88 71 99 86 94 97 97 90 97 89 98 98 99 98 100 100 100 100 100 100 99 98 99
27 27 28 30 28 26 24 24 25 27 28 29 31 32 37 40 42 46 47 50 81 91 96 94 98 99 100 98 98 98 96 99 99 99 100 99 100 100 99 98 98 94 94
24 24 23 23 23 23 24 26 27 28 30 33 36 38 41 43 46 49 48 50 50 53 56 77 96 99 90 98 96 96 95 96 98 100 100 100 99 98 96 94 91 81 61
23 22 23 30 39 42 44 43 43 42 46 52 56 57 62 64 63 67 65 64 67 72 72 91 99 88 94 99 99 98 98 98 98 95 92 92 80 44 20 15 12 11 11
33 38 39 39 42 46 48 49 46 39 39 38 38 42 47 53 63 68 71 69 77 75 84 97 95 100 100 98 99 98 96 90 82 52 24 16 11 10 10 9 9 8 7
40 42 42 41 33 26 28 29 33 36 36 36 36 43 49 54 53 58 65 62 96 89 99 100 100 100 100 99 98 81 33 13 11 10 9 7 6 5 4 4 3 3 3
41 35 26 22 26 30 32 33 33 35 36 36 44 48 56 59 56 65 82 87 95 98 93 95 94 95 91 50 19 13 10 8 5 4 3 3 2 4 7 14 18 20 22
22 21 25 28 29 31 32 36 38 42 44 50 51 54 58 62 68 78 85 88 91 85 77 68 44 17 13 10 8 5 4 3 2 2 7 14 22 24 24 23 20 18 18
29 32 33 39 40 42 44 47 51 53 54 52 58 60 61 64 68 65 50 25 15 13 12 10 7 5 4 3 3 2 2 2 10 19 23 27 26 26 24 23 23 25 27
37 43 43 44 47 50 54 57 60 60 59 60 59 49 24 17 15 14 12 9 6 5 4 3 2 2 2 2 2 2 8 16 19 20 25 28 30 31 31 30 30 34 32
50 48 50 52 53 58 60 61 63 62 59 45 23 18 16 15 14 9 7 5 4 3 2 2 2 2 2 2 3 13 18 21 22 21 21 25 29 31 34 35 38 41 40
56 58 57 59 60 62 61 61 53 29 21 18 16 16 18 16 12 8 6 6 4 2 2 2 2 2 2 7 17 20 20 21 22 24 25 26 29 30 29 35 40 37 34

GFSMA_700_rhum_090.txt.gz
RH
47 47 47 47 47 48 49 49 50 52 52 51 47 45 46 50 53 55 55 56 56 57 58 59 59 58 55 51 51 53 55 56 55 55 56 56 55 55 55 56 55 50 47
47 48 48 49 50 51 51 51 52 52 53 52 51 48 45 46 47 51 54 55 56 58 59 60 62 64 64 61 57 58 61 63 63 60 60 59 59 58 58 60 58 55 52
48 49 50 50 50 51 51 50 50 51 54 55 53 49 47 47 49 50 53 54 55 57 59 60 63 66 70 72 69 65 64 66 68 70 70 69 66 63 64 69 73 66 58
44 46 48 49 48 48 50 55 56 55 52 51 51 50 49 50 52 53 56 60 60 58 59 61 64 66 69 74 76 76 74 73 75 77 79 78 77 75 72 72 78 76 68
42 45 48 48 51 56 56 54 38 31 32 36 39 43 48 50 51 52 59 63 67 69 66 64 65 68 71 73 75 79 81 83 82 80 78 79 81 82 85 82 82 86 80
54 56 56 55 48 52 40 33 34 36 38 38 35 34 35 39 41 47 59 66 70 74 76 78 78 78 78 80 81 81 82 80 83 95 96 92 90 95 98 98 92 90 91
43 39 34 36 43 37 38 39 42 45 48 49 46 45 40 38 42 47 56 63 72 79 80 82 84 85 89 91 93 94 92 92 87 85 87 99 100 100 100 98 100 100 96
38 37 39 44 43 43 45 48 52 53 57 59 56 54 49 47 48 53 53 58 63 68 74 79 82 85 86 88 88 94 97 99 100 96 98 100 98 99 99 98 98 99 99
50 50 50 51 52 53 55 58 58 60 65 67 65 63 62 54 51 48 48 55 63 63 68 78 80 84 86 89 89 90 96 99 100 99 100 100 98 94 98 97 97 92 98
58 62 61 60 61 59 58 61 60 61 65 70 72 72 69 64 64 53 40 38 45 60 65 68 74 77 80 90 86 93 95 90 96 98 99 98 97 96 89 98 100 100 100
62 68 70 68 68 65 68 62 62 68 72 76 75 68 58 51 48 43 43 54 99 79 76 72 78 91 80 93 87 95 85 83 99 97 100 98 95 99 94 100 99 99 99
63 64 62 66 68 67 67 71 72 68 67 61 52 41 37 38 34 47 68 79 74 94 84 90 65 89 82 75 88 89 89 99 98 100 96 92 85 98 100 98 98 100 98
55 58 61 63 66 71 71 62 51 46 40 30 30 28 31 35 39 59 81 56 73 67 59 70 60 54 62 76 75 84 85 98 89 94 93 96 86 95 98 99 99 97 99
41 46 50 51 48 46 37 27 24 31 42 36 30 35 40 38 41 45 46 50 48 45 46 35 47 42 53 63 72 68 58 79 80 98 96 86 97 91 100 100 100 98 100
31 28 24 22 22 22 22 28 36 31 32 34 40 40 34 32 30 34 36 36 34 34 37 40 45 50 60 49 59 62 67 76 97 100 92 100 97 99 100 99 98 99 99
21 20 18 17 18 20 23 31 30 29 30 30 29 26 26 26 27 29 31 36 40 45 48 48 47 65 54 62 64 68 76 73 93 95 88 90 86 94 91 89 88 98 95
17 16 17 19 22 26 27 26 25 24 24 24 26 33 38 39 40 42 48 53 52 49 48 45 47 50 52 55 57 64 67 82 74 86 88 85 88 83 82 77 72 56 34
25 27 27 27 27 26 26 25 26 25 26 31 43 48 51 53 54 47 39 38 36 39 41 43 50 48 51 51 59 64 71 72 72 75 83 85 79 61 17 13 11 10 8
29 28 28 28 27 25 24 25 28 34 41 46 48 54 52 40 36 37 35 38 45 49 48 54 59 56 63 64 66 68 66 63 58 48 37 28 16 12 9 5 3 2 2
30 29 28 27 24 26 33 38 42 45 47 47 40 35 36 38 38 38 43 46 48 49 52 59 64 66 63 44 23 18 16 12 11 10 9 7 5 3 2 2 6 8 10
27 23 23 28 37 42 44 45 46 44 34 32 36 38 37 36 44 46 50 52 54 55 55 43 23 15 13 11 8 7 5 4 4 4 3 2 2 2 7 9 8 8 10
25 32 42 47 48 47 43 34 29 32 37 35 35 37 42 48 48 52 52 48 26 16 15 12 11 9 6 4 3 2 2 2 2 2 2 1 8 10 9 9 10 12 12
35 48 49 48 40 30 28 32 35 37 40 42 43 52 51 54 55 44 20 16 16 14 12 10 10 9 8 5 4 2 2 2 1 1 3 10 11 11 11 12 14 16 16
52 50 37 28 30 36 38 43 46 51 53 56 58 58 58 51 29 18 17 17 17 15 13 14 15 14 9 6 3 2 2 2 2 6 11 13 13 14 15 15 17 18 19
39 31 34 40 46 50 53 55 57 58 62 65 62 56 36 21 17 18 19 20 20 20 19 17 16 13 9 6 3 2 2 2 8 11 14 15 18 19 20 20 22 22 23
46 48 50 52 58 62 60 60 62 66 66 59 43 22 18 17 18 20 22 24 24 21 19 18 14 10 7 4 3 2 4 9 12 15 16 17 21 21 24 28 31 33 32

GFSMA_700_rhum_093.txt.gz
RH
46 46 47 47 47 48 49 49 47 49 52 53 52 50 48 47 46 49 52 54 55 57 58 59 59 60 60 60 57 53 52 52 53 55 56 57 58 56 54 55 57 55 53
47 47 48 48 48 49 50 52 51 50 52 53 54 54 51 47 47 49 51 53 54 55 57 58 60 61 63 64 65 64 61 59 58 58 57 57 57 58 58 59 62 68 69
47 47 48 49 50 50 51 52 51 50 51 55 56 54 51 49 49 51 53 55 58 58 57 58 59 61 62 64 66 69 70 69 66 63 63 65 68 69 71 71 69 70 74
47 48 49 50 50 50 50 49 51 56 57 51 45 40 40 42 45 49 53 55 59 65 66 63 61 61 62 64 66 68 71 74 75 76 75 75 76 79 81 85 86 84 79
42 44 46 47 48 48 48 53 56 52 32 30 33 33 34 35 37 40 47 54 62 64 66 69 72 72 70 70 71 73 73 74 78 81 81 82 87 92 93 93 92 90 95
38 41 45 48 51 54 57 55 44 32 34 37 38 42 42 41 37 38 45 50 59 66 68 71 73 75 77 79 81 84 84 82 78 84 94 98 100 100 99 98 96 99 99
50 55 58 56 54 50 50 43 36 38 42 47 44 51 51 48 48 47 48 51 53 53 60 62 69 78 82 84 87 88 88 81 78 72 73 80 92 98 95 86 84 92 98
47 48 45 39 39 43 43 40 42 45 48 54 53 59 55 55 57 58 55 54 55 59 61 66 72 75 81 86 85 85 84 84 91 92 96 99 99 99 99 99 85 91 80
50 45 44 45 45 45 47 48 50 53 60 60 64 64 64 65 65 60 54 53 58 62 60 74 77 78 80 79 82 82 88 91 100 99 97 98 99 96 78 76 80 87 92
65 58 55 58 58 57 57 59 65 73 76 68 64 68 76 80 78 59 46 27 34 47 51 88 83 84 73 93 76 98 80 97 100 98 88 96 90 91 93 77 93 98 98
84 67 62 67 69 73 80 80 86 76 75 67 70 74 79 67 52 47 36 95 66 84 75 98 79 100 81 85 72 85 84 98 93 91 92 94 94 90 96 91 97 100 100
61 60 65 74 67 60 64 65 72 73 71 71 75 71 54 39 32 32 33 42 78 67 100 67 72 94 57 89 65 59 96 76 85 91 87 99 88 88 85 99 90 100 99
55 52 52 55 57 59 63 67 68 70 72 68 54 33 27 37 33 36 39 44 48 96 65 48 58 47 54 44 46 45 64 74 100 84 79 81 93 92 93 100 100 99 99
41 38 37 42 48 54 61 62 62 58 51 35 25 37 37 34 38 45 44 43 43 55 40 36 38 38 44 49 49 58 58 64 72 64 74 78 99 95 95 98 97 94 99
40 36 34 30 28 28 27 24 22 22 30 26 33 33 32 36 40 29 28 28 28 30 30 36 43 44 49 61 54 66 53 57 67 69 70 73 94 96 92 81 84 84 87
33 28 23 21 22 24 23 20 18 20 23 27 32 31 39 30 28 27 29 31 32 35 41 43 47 42 44 49 52 55 56 61 61 66 72 73 72 73 77 79 74 72 68
30 24 16 14 15 16 17 19 24 26 27 27 27 26 27 26 32 42 46 46 48 49 42 39 38 39 41 48 47 53 58 59 63 66 74 66 65 72 76 72 59 22 14
27 17 15 16 20 21 24 27 27 27 27 29 27 28 29 38 47 50 56 50 40 36 34 36 42 45 53 56 54 60 61 59 53 42 36 28 31 34 32 19 12 10 5
20 22 23 25 27 28 26 27 26 26 26 27 31 36 45 50 54 49 40 38 34 38 44 45 48 51 60 61 64 49 22 15 13 11 9 8 8 8 6 5 4 2 2
32 31 30 28 29 30 28 28 26 26 31 40 45 48 54 51 37 38 39 36 43 45 46 51 54 52 38 21 14 12 9 6 4 3 3 3 3 3 2 2 2 5 8
35 33 32 31 29 25 25 25 33 43 45 47 50 46 37 40 41 36 38 46 49 48 47 28 17 14 12 10 8 6 5 4 4 3 2 2 2 2 2 4 8 8 8
38 35 34 28 23 26 38 45 47 48 46 40 34 36 39 37 38 47 52 54 46 22 17 16 13 12 13 13 14 12 10 6 4 2 2 2 1 2 8 9 9 10 10
37 34 30 28 30 43 50 52 47 36 31 36 38 38 40 46 51 55 52 28 18 17 17 16 16 16 17 18 17 11 7 4 2 2 2 2 5 8 10 11 12 13 13
35 33 33 35 48 50 43 31 32 35 38 43 46 47 54 56 58 39 21 17 18 19 20 20 21 21 21 17 13 9 6 3 2 2 4 8 10 10 11 13 14 15 16
54 50 51 52 43 33 33 40 44 48 52 56 58 63 62 50 26 18 18 19 20 22 23 23 22 21 18 14 13 10 6 4 3 6 9 11 12 13 14 16 19 22 24
67 58 46 38 41 46 52 57 58 60 62 64 67 57 34 20 18 18 20 22 24 26 25 24 22 20 19 18 17 13 7 5 7 9 10 12 15 17 19 22 26 30 32